User: anonymous   Login
Location: Unspecified
(0.0000°N, 0.0000°E)
Time: 06:36:22
(UTC+00:00)
Language:

OGO 1 - Orbit

View from above orbital plane
View from above orbital plane
View from above satellite
View from above satellite

Ground track
Ground track

The orbit data is extracted from the following two-line orbital elements,

1   879U 64054A   18270.21465519 -.00000313 +00000-0 +00000-0 0  9992
2   879 080.3077 326.9468 7568294 201.4117 000.6812 00.37774647019198
Epoch (UTC): 27 September 2018 05:09:06
Eccentricity: 0.7568294
inclination: 80.3077°
perigee height: 13278 km
apogee height: 135634 km
right ascension of ascending node: 326.9468°
argument of perigee: 201.4117°
revolutions per day: 0.37774647
mean anomaly at epoch: 0.6812°
orbit number at epoch: 1919

The dashed part of the orbit path shows where the satellite is in the earth's shadow,  

DLR